COSMOS 1691 DEB, 19111

Orbit data source: Space-Track

COSMOS 1691 DEB, 19111 is space debris in LEO originally from a launch on Wed, 09 Oct 1985 UTC launched from the Plesetsk Missile And Space Complex (PKMTR). Debris objects in space refer to the collection of defunct objects orbiting the Earth. Examples of debris include non-operational satellites, rocket bodies, and fragments generated from explosions, collisions, or faulty payload assembly.

Loading next visibility...
Identifier
19111, 1985-094W
Orbit
LEO
Country
Flag of CISCIS
Related business
Manufacturer
Unknown
Mission
Spacecraft
Bus & Motor
Unknown
Mass
Unknown
Launch date (UTC)
1985-10-09 (40 years ago)
Launch vehicle
Unknown
Launch site
Plesetsk Missile And Space Complex (PKMTR)
Object type
Payload
Rocket body
Debris
Shape & HBR
Unknown shape, 0.1 m
Radar Cross Section
Small (<0.1 m²)

Expand to show TLE details & history
Last TLE update: 2 days ago

TLE from 2 days ago
0 COSMOS 1691 DEB
1 19111U 85094W   25339.42632139  .00000394  00000-0  19265-2 0  9992
2 19111  82.6063 330.0580 0012378 129.8283  23.3401 12.70158498748695
Epoch: 2025-12-05T10:13Z
TLE epoch observation values (Epoch: 2025-12-05T10:13:54.168Z)
Latitude
26.5685°
Longitude
-81.58848°
Altitude
1,375.578 km
Speed
7.178 km/s
True Right ascension
09h 45m 25s
True Declination
26° 26' 32"
Sunlit
Object was in daylight at epoch
Visualization orbit readout
Latitude
Unknown
Longitude
Unknown
Altitude
Unknown
Speed
Unknown
Apparent Right ascension
Unknown
Apparent Declination
Unknown
Sunlit
N/A
Visualization observer readout
Local Sidereal Time
16:20:44
Azimuth
Unknown
Elevation
Unknown
Doppler factor
Unknown
Orbital elements
Apogee altitude
1,388.204 km
Perigee altitude
1,369.002 km
Semi-major axis
7,756.74 km
Eccentricity
0.00124
Inclination
82.6063°
RAAN
330.058°
Arg. of periapsis
129.8283°
True anomaly
23.39638°
Mean anomaly
23.3401°
Eccentric anomaly
23.36823°
Mean motion
3.17705 °/min
Orbital period
113.31 mins
BSTAR
0.0019265
Loading maneuver chart data...
Computing Atmospheric mass density...
Loading historical data...
Loading historical data...
Loading historical data...
Loading historical data...
Loading historical data...
Loading historical data...
Loading historical data...

Documentation

Showing up to 5 results
|